カタログに戻る

STARLINK-32648

運用中通信VLEO
NORAD 62301·PAYLOAD·🇺🇸 United States

打ち上げ Dec 13, 2024 から Vandenberg Space Force Base

Loading…

次のパス (今後24時間)

TLE

最新Source: CelesTrak SupGP

元期: Sep 15, 2026, 02:11 UTC

1 62301C 24239A   26258.09145833  .00022167  00000+0  65515-3 0  2588
2 62301  53.1594  18.6344 0001193  89.6174 175.3091 15.34369626    18

AllMySatでSTARLINK-32648をリアルタイム追跡

Download on the App Store